This demonstration page uses our WeatherBlox Daily Observations layout. Learn more.

Hourly Observations for November 30, 2018

Temp ( °F °C ) Dew Point ( °F °C ) Humidity (%) Winds ( mph kmh ) Pressure ( in mb ) Visibility ( mi km ) Precip ( " mm )
12:15 am 00:15 Cloudy with Freezing Fog 31 -0.5 31 -0.5 100 100 Calm 29.94 1014 0 0 0 0
12:35 am 00:35 Cloudy with Freezing Fog 31 -0.3 31 -0.3 100 100 Calm 29.91 1013 0 0 0 0
12:55 am 00:55 Cloudy with Freezing Fog 32 -0.2 32 -0.2 100 100 Calm 29.94 1014 0 0 0 0
1:15 am 01:15 Cloudy with Fog 32 -0.1 32 -0.1 100 100 Calm 29.91 1013 0 0 0 0
1:35 am 01:35 Cloudy with Fog 32 0 32 0 100 100 Calm 29.91 1013 0 0 0 0
1:55 am 01:55 Cloudy with Fog 32 -0.1 32 -0.1 100 100 Calm 29.91 1013 0.25 0.402336 0 0
2:15 am 02:15 Cloudy with Fog 32 0 32 0 100 100 NE 5 7 29.88 1012 0.5 0.804672 0 0
2:35 am 02:35 Cloudy with Mist and Fog 32 0 32 0 100 100 NE 3 6 29.91 1013 0.75 1.207008 0 0
2:55 am 02:55 Cloudy with Mist and Fog 32 0 32 0 100 100 ENE 5 7 29.91 1013 1 1.609344 0 0
3:15 am 03:15 Cloudy with Fog 32 0 32 0 100 100 Calm 29.91 1013 0.5 0.804672 0 0
3:35 am 03:35 Cloudy with Fog 32 0 32 0 100 100 Calm 29.91 1013 0.5 0.804672 0 0
3:55 am 03:55 Cloudy with Fog 32 0 32 0 100 100 Calm 29.91 1013 0.5 0.804672 0 0
4:15 am 04:15 Cloudy with Fog 32 0 32 0 100 100 E 3 6 29.88 1012 0.5 0.804672 0 0
4:35 am 04:35 Cloudy with Fog 32 0 32 0 100 100 Calm 29.88 1012 0.5 0.804672 0 0
4:55 am 04:55 Cloudy with Fog 32 0 32 0 100 100 SE 3 6 29.91 1013 0.25 0.402336 0 0
5:15 am 05:15 Cloudy with Fog 32 0 32 0 100 100 E 5 7 29.88 1012 0.25 0.402336 0 0
5:35 am 05:35 Cloudy with Fog 32 -0.1 32 -0.1 100 100 E 7 11 29.88 1012 0.5 0.804672 0 0
5:55 am 05:55 Cloudy with Fog 32 0 32 0 100 100 E 7 11 29.88 1012 0.25 0.402336 0 0
6:15 am 06:15 Cloudy with Fog 32 0 32 0 100 100 ESE 6 9 29.88 1012 0.25 0.402336 0 0
6:35 am 06:35 Cloudy with Fog 32 0 32 0 100 100 ESE 7 11 29.88 1012 0.25 0.402336 0 0
6:55 am 06:55 Cloudy with Fog 32 -0.1 32 -0.1 100 100 SE 5 7 29.91 1013 0.5 0.804672 0 0
7:15 am 07:15 Cloudy with Fog 32 -0.1 32 -0.1 100 100 SE 6 9 29.91 1013 0.5 0.804672 0 0
7:35 am 07:35 Cloudy with Freezing Fog 32 -0.2 32 -0.2 100 100 SE 9 15 29.88 1012 0.25 0.402336 0 0
7:55 am 07:55 Cloudy with Freezing Fog 31 -0.4 31 -0.4 100 100 SE 9 15 29.91 1013 0.25 0.402336 0 0
8:15 am 08:15 Cloudy with Freezing Fog 31 -0.5 31 -0.5 100 100 ESE 6 9 29.88 1012 0 0 0 0
8:35 am 08:35 Cloudy with Freezing Fog 31 -0.6 31 -0.6 100 100 ESE 8 13 29.88 1012 0 0 0 0
8:55 am 08:55 Cloudy with Freezing Fog 31 -0.5 31 -0.5 100 100 E 7 11 29.88 1012 0.25 0.402336 0 0
9:15 am 09:15 Cloudy with Freezing Fog 31 -0.5 31 -0.5 100 100 E 8 13 29.88 1012 0.25 0.402336 0 0
9:35 am 09:35 Cloudy with Fog 32 0 32 0 100 100 E 8 13 29.88 1012 0.25 0.402336 0 0
9:55 am 09:55 Mostly Cloudy with Mist and Fog 32 0.1 32 0.1 100 100 E 9 15 29.88 1012 1.75 2.816352 0 0
10:15 am 10:15 Partly Cloudy with Mist and Fog 33 0.5 33 0.5 100 100 E 10 17 29.88 1012 3 4.828032 0 0
10:35 am 10:35 Partly Cloudy with Mist and Fog 35 1.4 35 1.4 100 100 E 10 17 29.85 1011 4 6.437376 0 0
10:55 am 10:55 Partly Cloudy with Mist and Fog 36 2.1 36 2.1 100 100 ESE 12 19 29.85 1011 5 8.04672 0 0
11:15 am 11:15 Sunny with Mist and Fog 36 2 36 2 100 100 ESE 13 20 29.85 1011 5 8.04672 0 0
11:35 am 11:35 Sunny 36 2.4 36 2.4 100 100 ESE 12 19 29.85 1011 7 11.265408 0 0
11:55 am 11:55 Partly Cloudy 38 3.2 38 3.2 100 100 E 13 20 29.85 1011 7 11.265408 0 0
12:15 pm 12:15 Partly Cloudy 38 3.6 37 3 96 96 ESE 16 26 29.85 1011 10 16.09344 0 0
12:35 pm 12:35 Mostly Cloudy 38 3.5 37 2.5 93 93 E 14 22 29.83 1010 7 11.265408 0 0
12:55 pm 12:55 Cloudy 37 3 36 2.2 95 95 ESE 15 24 29.83 1010 7 11.265408 0 0
1:15 pm 13:15 Cloudy 38 3.1 37 2.5 96 96 E 16 26 29.8 1009 7 11.265408 0 0
1:35 pm 13:35 Cloudy 37 3 36 2.2 95 95 E 13 20 29.8 1009 7 11.265408 0 0
1:55 pm 13:55 Cloudy 37 3 36 2.1 94 94 E 14 22 29.77 1008 7 11.265408 0 0
2:15 pm 14:15 Cloudy 37 3 36 2.3 95 95 E 9 15 29.77 1008 7 11.265408 0 0
2:35 pm 14:35 Cloudy 38 3.1 37 2.5 96 96 E 12 19 29.74 1007 7 11.265408 0 0
2:55 pm 14:55 Cloudy 38 3.2 37 2.5 95 95 E 15 24 29.71 1006 7 11.265408 0 0
3:15 pm 15:15 Cloudy with Mist and Fog 38 3.1 37 2.5 96 96 E 15 24 29.71 1006 5 8.04672 0 0
3:35 pm 15:35 Cloudy with Mist and Fog 38 3.2 37 2.6 96 96 E 15 24 29.71 1006 5 8.04672 0 0
3:55 pm 15:55 Cloudy with Mist and Fog 37 3 37 2.5 97 97 E 13 20 29.71 1006 3 4.828032 0 0
4:15 pm 16:15 Cloudy with Mist and Fog 37 3 37 2.7 98 98 E 13 20 29.71 1006 1.5 2.414016 0 0
4:35 pm 16:35 Cloudy with Mist and Fog 37 3 37 3 100 100 E 14 22 29.68 1005 4 6.437376 0 0
4:55 pm 16:55 Cloudy with Light Drizzle 38 3.1 37 3 99 99 E 14 22 29.68 1005 5 8.04672 0 0
5:15 pm 17:15 Cloudy with Mist and Fog 38 3.1 37 3 99 99 E 12 19 29.68 1005 5 8.04672 0 0
5:35 pm 17:35 Cloudy with Mist and Fog 37 3 37 3 100 100 E 14 22 29.68 1005 5 8.04672 0 0
6:15 pm 18:15 Cloudy with Mist and Fog 37 2.6 36 2.3 98 98 E 17 28 29.68 1005 5 8.04672 0 0
6:35 pm 18:35 Cloudy with Mist and Fog 36 2.3 36 2.1 99 99 E 15 24 29.71 1006 5 8.04672 0 0
6:55 pm 18:55 Cloudy with Mist and Fog 36 2.2 36 2.1 99 99 E 18 30 29.65 1004 4 6.437376 0 0
7:15 pm 19:15 Cloudy with Light Rain 36 2.1 36 2.1 100 100 E 12 19 29.68 1005 3 4.828032 0 0
7:35 pm 19:35 Cloudy with Light Rain 36 2 36 2 100 100 E 12 19 29.68 1005 3 4.828032 0 0
7:55 pm 19:55 Cloudy with Light Rain 35 1.9 35 1.9 100 100 E 13 20 29.68 1005 3 4.828032 0 0
8:15 pm 20:15 Cloudy with Light Rain 36 2 36 2 100 100 E 12 19 29.62 1003 3 4.828032 0 0
8:35 pm 20:35 Cloudy with Light Rain 36 2 36 2 100 100 E 13 20 29.62 1003 4 6.437376 0 0
8:55 pm 20:55 Cloudy with Nearby Thunderstorms 36 2.2 36 2.2 100 100 SE 10 17 29.65 1004 2.5 4.02336 0.05 1.27
9:15 pm 21:15 Cloudy with Rain 36 2.1 36 2.1 100 100 ESE 7 11 29.62 1003 2.5 4.02336 0.05 1.27
9:35 pm 21:35 Cloudy with Rain 36 2 36 2 100 100 E 5 7 29.62 1003 5 8.04672 0.09 2.286
9:55 pm 21:55 Cloudy 36 2 36 2 100 100 ENE 5 7 29.59 1002 10 16.09344 0.09 2.286
10:15 pm 22:15 Cloudy with Light Rain 36 2 36 2 100 100 ENE 6 9 29.59 1002 7 11.265408 0 0
10:35 pm 22:35 Cloudy with Nearby Thunderstorms 36 2 36 2 100 100 NE 6 9 29.59 1002 7 11.265408 0.01 0.254
10:55 pm 22:55 Cloudy with Rain 36 2 36 2 100 100 NE 5 7 29.59 1002 7 11.265408 0.01 0.254
11:15 pm 23:15 Cloudy with Rain 36 2 36 2 100 100 NNE 8 13 29.56 1001 4 6.437376 0.03 0.762
11:35 pm 23:35 Cloudy 36 2 36 2 100 100 NE 8 13 29.56 1001 5 8.04672 0.07 1.778
11:55 pm 23:55 Cloudy with Light Rain 36 2 36 2 100 100 NNE 10 17 29.53 1000 7 11.265408 0.08 2.032

Powered by AerisWeather